This is the latest recevied weather packets stored in our database for station/object W8BS. If no packets are shown the sender has not sent any weather packets the latest 10 day(s).
| Time | Temp. | Humidity | Pressure | Rain* | Wind** | Luminosity | Snow |
|---|---|---|---|---|---|---|---|
| 1777215387 | 8.89° C | 99% | 1017.1 hPa | 0 mm | - | 127 W/m² | - |
| 1777215084 | 8.89° C | 99% | 1017.2 hPa | 0 mm | - | 116 W/m² | - |
| 1777214779 | 8.89° C | 99% | 1016.9 hPa | 0 mm | - | 126 W/m² | - |
| 1777214473 | 8.89° C | 99% | 1017 hPa | 0 mm | - | 119 W/m² | - |
| 1777214169 | 8.89° C | 99% | 1017.1 hPa | 0 mm | - | 108 W/m² | - |
| 1777213862 | 8.89° C | 99% | 1017 hPa | 0 mm | - | 107 W/m² | - |
| 1777213557 | 8.89° C | 99% | 1016.6 hPa | 0 mm | - | 111 W/m² | - |
| 1777213255 | 8.89° C | 99% | 1016.6 hPa | 0 mm | - | 115 W/m² | - |
| 1777212950 | 8.89° C | 99% | 1016.9 hPa | 0 mm | - | 111 W/m² | - |
| 1777212649 | 8.89° C | 99% | 1016.9 hPa | 0 mm | - | 136 W/m² | - |
| 1777212347 | 8.89° C | 99% | 1016.8 hPa | 0 mm | - | 134 W/m² | - |
| 1777212043 | 8.89° C | 99% | 1016.6 hPa | 0 mm | - | 124 W/m² | - |
| 1777211739 | 8.89° C | 99% | 1016.5 hPa | 0 mm | - | 140 W/m² | - |
| 1777211438 | 8.89° C | 99% | 1016.6 hPa | 0 mm | - | 119 W/m² | - |
| 1777211134 | 8.89° C | 99% | 1016.4 hPa | 0 mm | - | 107 W/m² | - |
| 1777210831 | 8.33° C | 99% | 1016.3 hPa | 0 mm | - | 109 W/m² | - |
| 1777210529 | 8.33° C | 99% | 1016.5 hPa | 0 mm | - | 108 W/m² | - |
| 1777210227 | 8.33° C | 99% | 1016.3 hPa | 0 mm | - | 94 W/m² | - |
| 1777209922 | 8.33° C | 99% | 1016.4 hPa | 0 mm | - | 90 W/m² | - |
| 1777209618 | 8.33° C | 99% | 1016.5 hPa | 0 mm | - | 92 W/m² | - |
| 1777209314 | 8.33° C | 99% | 1016.3 hPa | 0 mm | - | 95 W/m² | - |
| 1777209011 | 8.33° C | 99% | 1016.2 hPa | 0 mm | - | 91 W/m² | - |
| 1777208707 | 8.33° C | 99% | 1016.1 hPa | 0 mm | - | 86 W/m² | - |
| 1777208404 | 8.33° C | 99% | 1016 hPa | 0 mm | - | 78 W/m² | - |
| 1777208100 | 8.33° C | 99% | 1016.1 hPa | 0 mm | - | 76 W/m² | - |
* Rain latest hour (hover to see other rain measurements)
** Current wind speed in m/s (hover to see current wind gust speed)